User: anonymous   Login
Location: Caltech
(34.1382°N, 118.1253°W)
Time: 15:07:50
(UTC-07:00)
Language:

Cosmos 1833 - Orbit

View from above orbital plane
View from above orbital plane
View from above satellite
View from above satellite

Ground track
Ground track

The orbit data is extracted from the following two-line orbital elements,

1 17589U 87027A   17289.41019376  .00000131  00000-0  95783-4 0  9993
2 17589  70.9143 290.0298 0028223 128.8848 231.4797 14.12868020577422
Epoch (UTC): 16 October 2017 09:50:40
Eccentricity: 0.0028223
inclination: 70.9143°
perigee height: 829 km
apogee height: 870 km
right ascension of ascending node: 290.0298°
argument of perigee: 128.8848°
revolutions per day: 14.12868020
mean anomaly at epoch: 231.4797°
orbit number at epoch: 57742

The dashed part of the orbit path shows where the satellite is in the earth's shadow,  

DLR